Wind_Speed
10 10 10 10 10 10 10 10 10 10 10 11 11 10 9 10 10 9 9 9 8 8 8 8 8 8 8 9 9 9 9 9 9 9 9 10 10 10 10 10 10 10 10
10 10 11 11 11 11 11 10 10 10 10 10 10 9 9 9 8 8 8 8 8 7 7 7 8 8 8 8 8 8 8 8 9 9 9 9 10 10 9 9 10 10 10
11 11 11 12 11 11 11 10 10 10 10 9 9 9 8 8 8 7 8 8 7 7 7 7 7 8 8 8 8 8 7 8 8 8 8 9 9 9 9 9 9 9 9
12 12 12 12 11 10 10 10 10 10 10 9 9 9 8 8 7 7 8 7 7 7 7 7 8 8 8 8 8 8 7 8 8 9 9 9 9 8 9 9 9 9 9
13 13 13 12 11 11 11 10 10 10 10 9 9 9 9 8 8 7 7 7 7 7 7 7 8 8 8 8 8 8 8 8 8 8 8 9 9 9 10 10 9 9 9
13 13 13 13 12 12 11 11 10 10 10 9 9 9 9 8 8 7 8 8 8 8 8 8 8 8 8 8 8 8 8 9 9 8 8 9 9 10 9 10 10 9 9
14 14 14 13 12 12 11 11 10 10 10 10 10 9 9 9 8 8 9 8 8 8 8 8 8 9 8 9 9 9 9 9 9 9 9 9 9 9 9 9 10 10 10
14 14 14 14 13 13 12 11 11 11 11 11 10 11 11 10 10 9 9 9 9 9 8 8 8 8 9 9 9 10 10 10 10 9 9 8 8 9 8 9 9 9 10
15 15 14 14 14 14 13 12 12 12 12 12 11 12 12 11 11 10 10 11 11 10 10 9 9 9 9 10 10 10 10 10 10 10 9 8 7 8 8 8 9 10 10
16 16 16 16 15 15 15 14 14 14 14 13 13 12 12 12 12 12 12 12 12 12 11 11 11 10 10 10 10 10 10 10 9 9 9 8 8 8 8 8 9 10 10
19 19 18 16 16 16 16 16 15 15 15 14 14 14 14 14 14 14 14 13 13 13 12 11 11 11 11 11 11 10 10 10 10 9 9 9 9 9 9 9 10 10 10
20 20 19 18 17 17 17 17 17 17 16 16 15 15 15 15 15 15 15 14 14 14 13 13 13 12 12 12 11 10 10 10 10 9 9 9 9 10 10 10 10 10 10
21 21 20 19 19 19 18 18 18 17 17 17 17 16 16 16 16 16 16 15 15 14 14 14 14 13 13 12 12 12 12 11 11 11 10 10 10 10 10 11 11 12 12
23 22 21 20 21 21 20 19 18 18 18 18 18 17 17 17 17 17 17 16 16 15 15 14 14 14 13 13 13 12 12 12 12 12 11 11 11 11 12 12 13 13 13
25 24 23 22 22 22 22 21 20 20 20 20 19 19 19 19 19 18 18 17 17 16 16 15 15 14 14 14 14 13 12 12 12 12 12 13 13 13 13 14 14 14 15
26 25 24 24 24 23 23 23 22 22 22 22 21 21 21 20 20 19 19 18 17 17 17 16 15 15 15 15 15 14 14 14 13 13 13 13 14 14 15 15 16 16 16
26 26 26 25 25 25 24 24 23 24 24 23 23 22 22 22 21 20 19 19 18 18 18 18 17 17 16 16 16 15 15 15 15 15 15 15 16 16 16 17 17 18 19
26 27 27 26 26 26 25 25 24 24 24 23 23 23 23 23 22 21 21 20 20 20 19 19 19 18 18 17 17 17 17 17 17 17 17 18 18 18 18 19 19 19 19
27 27 27 27 27 27 26 26 25 24 24 24 24 24 24 24 24 23 23 22 21 21 20 20 19 19 19 19 19 19 19 19 19 19 20 20 20 21 21 21 21 22 21
28 28 27 27 27 27 26 25 26 26 25 25 25 25 25 25 24 24 23 23 23 22 22 22 21 20 21 21 21 21 21 21 21 21 22 22 22 23 23 23 23 24 24
27 27 27 26 27 27 26 26 26 26 26 25 25 24 25 25 25 25 25 25 25 24 24 24 23 22 22 22 22 22 22 22 23 23 23 23 23 24 24 24 25 25 25
27 26 27 26 26 27 26 26 26 25 25 25 26 26 26 26 26 27 27 26 26 26 25 25 25 25 24 24 24 24 24 24 24 24 24 24 25 25 26 25 26 26 26
28 27 27 27 27 27 28 27 26 26 25 25 26 26 27 27 27 27 27 26 26 26 26 26 26 26 25 25 25 25 25 25 25 25 25 26 26 27 27 27 27 27 28
28 27 27 27 27 27 28 27 27 26 26 26 26 27 28 28 28 28 27 27 27 27 27 27 27 27 27 26 26 26 26 26 27 27 27 27 27 28 28 28 29 29 29
27 27 27 27 27 28 28 27 28 27 27 27 27 27 27 27 27 28 28 28 28 28 29 29 29 29 28 28 28 28 28 28 28 28 29 29 29 29 30 30 30 30 31
28 28 28 28 28 28 28 28 29 28 28 28 27 27 27 27 27 27 28 28 28 28 29 29 30 30 30 30 30 30 29 29 29 30 30 30 31 30 30 30 30 31 31
Wind_Direction
299 302 305 306 307 308 307 308 308 308 308 306 306 307 306 305 303 300 296 297 296 292 290 288 285 287 286 286 284 281 278 278 275 275 277 277 279 282 282 280 279 277 276
297 300 301 303 304 304 304 307 308 308 307 307 305 306 307 306 304 303 300 298 295 294 295 291 286 287 290 291 289 286 282 281 274 274 277 278 278 280 282 280 277 280 279
295 300 302 302 302 301 302 304 306 306 306 307 307 306 306 308 306 302 298 297 296 293 294 294 294 294 294 295 295 289 285 283 280 279 283 284 281 279 283 282 281 282 280
291 294 297 300 300 301 302 302 302 303 304 307 308 306 307 309 307 302 298 297 296 293 293 293 293 293 294 296 297 293 289 285 283 284 286 285 283 280 285 286 288 285 283
289 291 295 297 299 299 300 299 300 300 300 302 300 303 307 310 308 305 300 299 299 297 293 294 292 292 293 295 298 295 294 289 286 287 288 286 282 282 285 286 290 290 289
287 288 291 293 294 295 297 297 298 298 299 299 299 301 304 308 308 305 301 298 298 299 296 295 293 294 294 294 296 295 296 294 289 285 287 285 284 286 287 286 287 290 291
286 285 287 288 290 292 293 293 294 294 295 294 295 297 298 299 302 305 304 301 301 299 298 297 299 296 293 294 295 292 294 294 291 288 288 287 287 288 290 289 288 291 294
284 282 282 283 284 286 288 289 289 292 292 290 292 293 292 290 292 296 300 301 299 298 295 297 299 297 293 293 294 292 291 292 288 286 286 288 290 290 291 292 291 294 296
282 280 280 280 281 282 283 283 284 287 289 288 288 290 290 289 288 291 294 296 296 293 290 292 297 296 295 294 293 292 291 291 287 283 283 285 290 292 294 291 291 294 297
279 280 279 277 277 279 281 280 283 283 282 283 285 286 286 285 286 289 290 292 293 290 288 289 290 291 293 295 294 295 294 293 290 285 281 282 285 289 292 291 294 297 298
277 278 278 279 278 278 279 279 279 282 281 279 281 281 282 283 284 286 287 288 288 288 285 286 287 289 290 290 291 291 295 294 290 285 283 283 282 285 289 293 297 299 299
274 275 275 276 276 275 276 276 277 279 279 278 279 279 280 279 281 282 283 285 286 285 282 283 285 287 289 289 289 287 291 292 289 286 285 284 284 286 288 293 297 299 299
271 271 272 273 273 273 274 273 274 275 275 275 276 278 278 279 279 279 279 280 282 280 279 280 282 285 286 288 288 286 285 288 286 282 281 282 285 287 289 291 293 294 296
270 270 270 271 271 272 272 273 273 273 273 274 274 275 276 278 279 278 277 278 278 276 277 278 279 280 281 284 287 289 287 286 284 280 279 282 285 284 284 287 290 291 294
270 271 269 269 270 270 270 271 272 273 272 272 274 273 274 276 277 277 277 276 274 273 274 275 276 276 277 278 282 285 285 284 284 281 278 280 283 283 284 285 287 289 291
269 268 268 268 269 269 269 270 270 273 272 272 272 272 273 274 276 274 274 273 272 272 273 273 274 274 275 276 278 280 280 281 281 279 279 280 282 284 283 283 285 287 289
269 268 267 267 268 268 269 269 270 271 272 271 270 272 272 272 273 271 271 270 271 272 274 274 272 272 271 273 272 276 281 280 279 278 278 279 281 282 283 284 287 286 286
269 267 266 266 268 269 270 269 269 269 270 270 269 270 271 271 270 270 270 269 269 271 271 272 272 271 270 271 271 274 276 278 278 278 278 280 282 281 281 282 285 286 286
270 267 266 266 267 268 270 269 269 269 270 270 269 269 270 270 269 267 268 268 268 269 269 269 269 270 269 269 270 272 274 276 278 279 280 280 281 281 280 281 282 283 284
270 269 267 267 268 269 269 270 270 270 271 270 270 269 270 269 267 267 267 267 266 267 269 269 270 270 270 269 270 271 272 274 277 278 280 280 280 280 280 281 282 282 282
268 268 267 267 268 269 270 270 271 271 270 269 268 269 269 269 267 267 267 268 267 267 267 268 269 270 271 269 269 271 272 275 277 279 280 280 281 281 281 282 283 283 282
266 266 266 266 268 269 269 270 271 270 270 269 269 267 268 269 268 267 267 267 266 265 265 266 267 269 270 271 271 270 272 275 278 280 280 280 280 281 282 282 283 284 283
268 267 267 267 268 270 270 270 270 270 270 270 270 268 268 268 268 268 268 267 266 266 265 266 267 269 269 270 272 273 273 275 277 279 280 282 283 282 282 282 283 283 283
269 268 267 268 269 270 270 268 269 269 269 270 271 271 270 270 269 268 269 268 266 266 265 265 267 268 269 269 271 273 274 276 277 279 281 283 284 284 284 283 284 284 284
269 269 268 268 269 269 269 269 269 268 269 271 272 272 272 271 270 270 269 268 267 267 267 267 267 268 269 270 271 273 274 275 277 279 281 283 284 284 284 284 284 284 284
269 269 269 269 269 268 268 269 269 268 268 270 271 272 272 272 272 271 269 269 269 268 267 267 267 268 268 269 271 273 274 275 277 279 280 282 284 284 284 284 283 283 284
Height
5850 5849 5848 5847 5847 5846 5845 5844 5843 5843 5842 5841 5840 5839 5839 5838 5837 5836 5836 5835 5835 5834 5834 5834 5834 5834 5834 5834 5834 5834 5834 5834 5834 5835 5835 5835 5835 5835 5835 5835 5835 5836 5836
5848 5847 5847 5846 5845 5844 5843 5843 5842 5841 5840 5839 5838 5838 5837 5836 5836 5835 5834 5834 5833 5833 5833 5833 5833 5833 5833 5833 5833 5832 5833 5833 5833 5833 5833 5833 5834 5833 5833 5833 5833 5834 5834
5846 5846 5845 5844 5843 5842 5842 5841 5840 5839 5839 5838 5837 5836 5836 5835 5834 5834 5833 5833 5832 5832 5832 5832 5832 5832 5831 5831 5831 5831 5831 5831 5831 5831 5831 5831 5831 5831 5831 5831 5831 5831 5831
5844 5843 5843 5842 5841 5841 5840 5839 5838 5838 5837 5837 5836 5835 5834 5834 5833 5832 5832 5831 5831 5831 5830 5830 5830 5830 5830 5830 5829 5829 5829 5829 5829 5829 5829 5829 5829 5829 5829 5830 5829 5829 5829
5841 5841 5841 5840 5839 5839 5838 5837 5836 5836 5835 5835 5834 5834 5833 5832 5832 5831 5830 5830 5829 5829 5829 5829 5829 5828 5828 5828 5828 5828 5827 5827 5827 5827 5827 5827 5827 5827 5827 5827 5827 5827 5827
5839 5838 5838 5838 5837 5837 5836 5835 5835 5834 5834 5833 5833 5832 5832 5831 5830 5830 5829 5828 5828 5828 5828 5827 5827 5827 5826 5826 5826 5826 5826 5825 5825 5825 5825 5825 5825 5825 5825 5825 5825 5825 5825
5836 5835 5835 5835 5835 5834 5834 5833 5832 5832 5831 5831 5831 5830 5830 5829 5829 5828 5828 5827 5827 5826 5826 5826 5825 5825 5825 5825 5824 5824 5824 5823 5823 5823 5823 5823 5822 5822 5822 5822 5822 5822 5822
5833 5832 5832 5832 5832 5832 5831 5831 5830 5830 5829 5829 5829 5828 5828 5827 5827 5827 5826 5826 5825 5825 5824 5824 5824 5824 5823 5823 5822 5822 5822 5821 5821 5821 5821 5820 5820 5820 5820 5820 5820 5820 5820
5829 5829 5828 5829 5829 5828 5828 5828 5827 5827 5827 5826 5826 5826 5825 5825 5825 5825 5824 5824 5823 5823 5823 5822 5822 5822 5821 5821 5820 5820 5819 5819 5819 5819 5819 5818 5818 5818 5818 5818 5818 5819 5818
5825 5825 5825 5825 5825 5825 5825 5825 5824 5824 5824 5823 5823 5823 5823 5822 5822 5822 5822 5821 5821 5821 5820 5820 5820 5819 5819 5818 5818 5817 5817 5817 5816 5816 5816 5816 5816 5816 5816 5816 5816 5816 5816
5821 5821 5821 5820 5821 5821 5821 5821 5821 5820 5820 5820 5820 5820 5819 5819 5819 5819 5818 5818 5818 5818 5818 5818 5817 5817 5816 5816 5816 5815 5815 5815 5814 5814 5814 5814 5814 5814 5814 5814 5814 5813 5813
5816 5816 5816 5816 5817 5817 5817 5817 5816 5816 5816 5816 5816 5816 5816 5816 5815 5815 5815 5815 5815 5815 5815 5815 5815 5814 5814 5814 5813 5813 5813 5812 5812 5812 5812 5812 5812 5812 5812 5812 5811 5811 5810
5811 5811 5811 5812 5812 5812 5812 5812 5812 5812 5811 5812 5812 5812 5812 5812 5811 5811 5811 5811 5811 5811 5811 5811 5811 5811 5811 5811 5810 5810 5810 5810 5810 5809 5809 5809 5809 5809 5809 5809 5808 5808 5807
5805 5806 5806 5806 5806 5806 5806 5807 5807 5807 5807 5807 5807 5807 5807 5807 5807 5807 5807 5807 5807 5807 5808 5808 5808 5808 5808 5808 5808 5807 5807 5807 5806 5806 5806 5806 5806 5806 5806 5805 5805 5805 5804
5799 5799 5800 5800 5801 5801 5801 5801 5802 5802 5802 5802 5802 5802 5802 5803 5803 5803 5802 5803 5803 5803 5803 5804 5804 5804 5804 5804 5804 5804 5804 5803 5803 5803 5803 5803 5803 5803 5802 5802 5801 5801 5800
5793 5793 5794 5794 5794 5795 5795 5795 5796 5796 5796 5796 5797 5797 5797 5797 5797 5797 5797 5798 5798 5798 5799 5799 5799 5800 5800 5800 5800 5800 5800 5800 5799 5799 5799 5799 5799 5798 5798 5798 5797 5797 5796
5786 5786 5787 5787 5788 5788 5788 5789 5789 5790 5790 5790 5790 5791 5791 5791 5792 5792 5792 5792 5793 5793 5794 5794 5795 5795 5795 5795 5796 5796 5796 5796 5795 5795 5795 5795 5794 5794 5794 5793 5793 5792 5791
5778 5779 5779 5780 5781 5781 5781 5782 5782 5783 5783 5783 5784 5784 5785 5785 5786 5786 5787 5787 5787 5788 5789 5789 5789 5790 5790 5791 5791 5791 5791 5791 5791 5790 5790 5790 5789 5789 5789 5788 5788 5787 5786
5770 5771 5772 5773 5773 5774 5774 5775 5775 5775 5776 5777 5777 5778 5778 5778 5779 5780 5780 5781 5782 5782 5783 5784 5784 5785 5785 5785 5786 5786 5786 5786 5785 5785 5784 5784 5784 5783 5783 5782 5782 5781 5780
5763 5764 5764 5765 5766 5766 5767 5768 5768 5769 5769 5769 5770 5770 5771 5771 5772 5773 5773 5774 5775 5775 5776 5777 5778 5778 5779 5779 5780 5780 5780 5780 5779 5779 5778 5778 5777 5777 5776 5776 5775 5775 5774
5756 5756 5757 5758 5758 5759 5760 5760 5761 5761 5762 5762 5762 5763 5763 5764 5764 5765 5766 5767 5767 5768 5769 5770 5771 5772 5772 5772 5773 5773 5773 5773 5773 5772 5772 5771 5770 5770 5769 5768 5768 5767 5766
5748 5748 5749 5750 5751 5752 5752 5753 5754 5754 5754 5754 5755 5755 5756 5756 5757 5757 5758 5759 5759 5760 5761 5762 5763 5764 5765 5765 5765 5766 5766 5766 5765 5765 5765 5764 5763 5762 5762 5761 5760 5759 5759
5740 5741 5742 5743 5743 5744 5744 5745 5746 5746 5746 5746 5747 5747 5748 5748 5748 5749 5750 5751 5751 5752 5753 5754 5755 5756 5757 5757 5758 5758 5758 5758 5758 5757 5757 5756 5755 5754 5754 5753 5752 5751 5750
5733 5733 5734 5735 5736 5736 5735 5736 5738 5738 5738 5738 5739 5739 5739 5740 5740 5741 5741 5742 5743 5744 5745 5746 5747 5747 5748 5749 5749 5750 5750 5750 5750 5749 5749 5748 5747 5746 5746 5744 5743 5742 5741
5725 5725 5726 5727 5727 5728 5728 5729 5729 5730 5730 5730 5731 5731 5731 5731 5731 5732 5732 5733 5734 5735 5736 5737 5738 5739 5740 5740 5741 5741 5741 5741 5741 5741 5741 5740 5739 5738 5737 5736 5735 5733 5732
5717 5717 5718 5718 5719 5719 5720 5720 5721 5721 5721 5722 5722 5722 5722 5723 5723 5723 5724 5724 5725 5725 5726 5727 5728 5729 5730 5731 5731 5732 5732 5732 5732 5731 5731 5731 5730 5728 5727 5726 5725 5724 5722